Weather History for Marion, SC

Change the Weather History Date:

Saturday, July 20, 2013

  Actual Average (KFLO) Record (KFLO)
Temperature  
Mean Temperature 80 °F 81 °F  
Max Temperature 87 °F 91 °F 103 °F (1977)
Min Temperature 73 °F 72 °F 64 °F (1987)
Degree Days  
Heating Degree Days 0 0  
Month to date heating degree days 0  
Since 1 June heating degree days 1  
Since 1 July heating degree days 0  
Cooling Degree Days 15 16  
Month to date cooling degree days 320  
Year to date cooling degree days 1024  
Since 1 June cooling degree days 717  
Growing Degree Days 30 (Base 50)    
Moisture  
Dew Point 72 °F    
Average Humidity 81    
Maximum Humidity 100    
Minimum Humidity 52    
Precipitation  
Precipitation 0.01 in 0.18 in 1.68 in (1964)
Month to date precipitation 3.28  
Year to date precipitation 23.26  
Sea Level Pressure  
Sea Level Pressure 30.04 in    
Wind  
Wind Speed 6 mph (SSW)    
Max Wind Speed 17 mph    
Max Gust Speed 22 mph    
Visibility 10 miles    
Events Rain , Thunderstorm    
T = Trace of Precipitation, MM = Missing Value Source: NWS Daily Summary

Daily Weather History Graph

Daily Weather History Graph

Search for Another Location

Airport:

Trip Planner

Search our weather history database for the weather conditions in past years. The results will help you decide how hot, cold, wet, or windy it might be!

Date:

Astronomy

Jul. 20, 2013 Rise Set
Actual Time 6:20 AM EDT 8:26 PM EDT
Civil Twilight 5:51 AM EDT 8:55 PM EDT
Nautical Twilight 5:17 AM EDT 9:29 PM EDT
Astronomical Twilight 4:40 AM EDT 10:06 PM EDT
Moon 6:29 PM EDT (7/20) 3:58 AM EDT (7/20)
Length of Visible Light 15h 03m
Length of Day
14h 06m
Waxing Gibbous, 93% of the Moon is Illuminated
Jul 20
Waxing Gibbous
Jul 22
Full
Jul 29
Last Quarter
Aug 6
New
Aug 14
First Quarter

Hourly Weather History & Observations

Time (EDT) Temp. Heat Index Dew Point Humidity Pressure Visibility Wind Dir Wind Speed Gust Speed Precip Events Conditions
12:15 AM 75.2 °F - 73.4 °F 94% 30.09 in 10.0 mi South 3.5 mph - N/A   Clear
12:35 AM 75.2 °F - 73.4 °F 94% 30.08 in 10.0 mi South 5.8 mph - N/A   Clear
12:55 AM 75.2 °F - 73.4 °F 94% 30.08 in 10.0 mi South 5.8 mph - N/A   Clear
1:15 AM 73.4 °F - 73.4 °F 100% 30.08 in 10.0 mi SSW 4.6 mph - N/A   Clear
1:35 AM 73.4 °F - 73.4 °F 100% 30.07 in 10.0 mi South 4.6 mph - N/A   Clear
1:55 AM 73.4 °F - 73.4 °F 100% 30.07 in 10.0 mi South 4.6 mph - N/A   Clear
2:15 AM 73.4 °F - 73.4 °F 100% 30.06 in 10.0 mi South 4.6 mph - N/A   Clear
2:35 AM 73.4 °F - 73.4 °F 100% 30.06 in 10.0 mi South 6.9 mph - N/A   Clear
2:55 AM 73.4 °F - 73.4 °F 100% 30.05 in 10.0 mi South 6.9 mph - N/A   Clear
3:15 AM 73.4 °F - 73.4 °F 100% 30.06 in 10.0 mi South 5.8 mph - N/A   Clear
3:35 AM 73.4 °F - 73.4 °F 100% 30.06 in 10.0 mi SSW 5.8 mph - N/A   Clear
3:55 AM 73.4 °F - 73.4 °F 100% 30.05 in 10.0 mi SSW 6.9 mph - N/A   Clear
4:15 AM 73.4 °F - 73.4 °F 100% 30.06 in 10.0 mi SSW 5.8 mph - N/A   Clear
4:35 AM 73.4 °F - 73.4 °F 100% 30.06 in 10.0 mi SSW 5.8 mph - N/A   Clear
4:55 AM 73.4 °F - 73.4 °F 100% 30.07 in 10.0 mi SSW 4.6 mph - N/A   Clear
5:15 AM 73.4 °F - 71.6 °F 94% 30.07 in 10.0 mi South 5.8 mph - N/A   Clear
5:35 AM 73.4 °F - 71.6 °F 94% 30.06 in 10.0 mi Calm Calm - N/A   Clear
5:55 AM 73.4 °F - 71.6 °F 94% 30.07 in 10.0 mi SSW 3.5 mph - N/A   Scattered Clouds
6:35 AM 73.4 °F - 71.6 °F 94% 30.06 in 10.0 mi South 3.5 mph - N/A   Clear
6:55 AM 73.4 °F - 73.4 °F 100% 30.06 in 10.0 mi Calm Calm - N/A   Clear
7:15 AM 73.4 °F - 73.4 °F 100% 30.07 in 10.0 mi Calm Calm - N/A   Clear
7:35 AM 73.4 °F - 73.4 °F 100% 30.07 in 10.0 mi South 4.6 mph - N/A   Clear
7:55 AM 75.2 °F - 73.4 °F 94% 30.07 in 10.0 mi South 5.8 mph - N/A   Clear
8:15 AM 77.0 °F - 73.4 °F 89% 30.07 in 10.0 mi SSW 6.9 mph - N/A   Scattered Clouds
8:35 AM 77.0 °F - 73.4 °F 89% 30.08 in 10.0 mi SW 3.5 mph - N/A   Mostly Cloudy
8:55 AM 77.0 °F - 73.4 °F 89% 30.09 in 10.0 mi SSW 4.6 mph - N/A   Overcast
9:15 AM 78.8 °F - 73.4 °F 83% 30.08 in 10.0 mi SSW 8.1 mph - N/A   Overcast
9:35 AM 78.8 °F - 71.6 °F 78% 30.09 in 10.0 mi SSW 5.8 mph - N/A   Overcast
9:55 AM 80.6 °F 83.9 °F 69.8 °F 70% 30.08 in 10.0 mi SW 9.2 mph - N/A   Scattered Clouds
10:35 AM 82.4 °F 86.3 °F 69.8 °F 66% 30.08 in 10.0 mi SSW 10.4 mph - N/A   Scattered Clouds
10:55 AM 82.4 °F 86.3 °F 69.8 °F 66% 30.08 in 10.0 mi SW 8.1 mph - N/A Thunderstorm Clear
11:15 AM 82.4 °F 85.4 °F 68.0 °F 62% 30.07 in 10.0 mi WSW 11.5 mph - N/A   Scattered Clouds
11:35 AM 84.2 °F 88.4 °F 69.8 °F 62% 30.07 in 10.0 mi SW 8.1 mph - N/A   Scattered Clouds
11:55 AM 86.0 °F 90.4 °F 69.8 °F 58% 30.07 in 10.0 mi SSW 11.5 mph 17.3 mph N/A   Scattered Clouds
12:15 PM 86.0 °F 89.4 °F 68.0 °F 55% 30.07 in 10.0 mi SSW 10.4 mph 20.7 mph N/A   Mostly Cloudy
12:35 PM 86.0 °F 89.4 °F 68.0 °F 55% 30.06 in 10.0 mi South 15.0 mph 19.6 mph N/A   Scattered Clouds
12:55 PM 86.0 °F 90.4 °F 69.8 °F 58% 30.05 in 10.0 mi SW 11.5 mph - N/A   Scattered Clouds
1:15 PM 86.0 °F 90.4 °F 69.8 °F 58% 30.05 in 10.0 mi SW 10.4 mph 17.3 mph N/A   Scattered Clouds
1:35 PM 86.0 °F 90.4 °F 69.8 °F 58% 30.03 in 10.0 mi SSW 9.2 mph - N/A   Mostly Cloudy
1:55 PM 87.8 °F 92.6 °F 69.8 °F 55% 30.03 in 10.0 mi SSW 13.8 mph 18.4 mph N/A   Scattered Clouds
2:15 PM 87.8 °F 92.6 °F 69.8 °F 55% 30.02 in 10.0 mi SSW 11.5 mph 17.3 mph N/A   Mostly Cloudy
2:35 PM 87.8 °F 92.6 °F 69.8 °F 55% 30.01 in 10.0 mi SW 12.7 mph 16.1 mph N/A   Scattered Clouds
2:55 PM 87.8 °F 91.4 °F 68.0 °F 52% 30.00 in 10.0 mi SW 13.8 mph 18.4 mph N/A   Scattered Clouds
3:15 PM 87.8 °F 91.4 °F 68.0 °F 52% 30.00 in 10.0 mi South 9.2 mph 17.3 mph N/A   Scattered Clouds
3:35 PM 87.8 °F 91.4 °F 68.0 °F 52% 29.99 in 10.0 mi SSW 10.4 mph 18.4 mph N/A   Scattered Clouds
3:55 PM 87.8 °F 92.6 °F 69.8 °F 55% 29.99 in 10.0 mi SSW 11.5 mph - N/A   Scattered Clouds
4:15 PM 87.8 °F 92.6 °F 69.8 °F 55% 29.98 in 10.0 mi South 13.8 mph - N/A   Scattered Clouds
4:35 PM 87.8 °F 92.6 °F 69.8 °F 55% 29.98 in 10.0 mi SW 5.8 mph - N/A   Clear
4:55 PM 87.8 °F 93.8 °F 71.6 °F 58% 29.97 in 10.0 mi SSW 6.9 mph - N/A   Scattered Clouds
5:15 PM 86.0 °F 90.4 °F 69.8 °F 58% 29.98 in 10.0 mi SSW 15.0 mph 18.4 mph N/A   Mostly Cloudy
5:35 PM 86.0 °F 90.4 °F 69.8 °F 58% 29.97 in 10.0 mi SSE 12.7 mph 17.3 mph N/A Thunderstorm Scattered Clouds
5:55 PM 82.4 °F 86.3 °F 69.8 °F 66% 29.99 in 10.0 mi SSE 17.3 mph 21.9 mph N/A Thunderstorm Mostly Cloudy
6:35 PM 77.0 °F - 71.6 °F 83% 30.00 in 10.0 mi South 15.0 mph - N/A   Overcast
6:55 PM 77.0 °F - 73.4 °F 89% 30.00 in 10.0 mi South 8.1 mph - 0.01 in Rain Light Rain
7:15 PM 78.8 °F - 73.4 °F 83% 29.98 in 10.0 mi South 10.4 mph 16.1 mph N/A   Scattered Clouds
7:35 PM 78.8 °F - 71.6 °F 78% 29.99 in 10.0 mi South 11.5 mph - N/A   Clear
8:15 PM 77.0 °F - 73.4 °F 89% 30.00 in 10.0 mi South 4.6 mph - N/A   Clear
8:35 PM 77.0 °F - 73.4 °F 89% 30.00 in 10.0 mi South 4.6 mph - N/A   Clear
8:55 PM 77.0 °F - 73.4 °F 89% 30.01 in 10.0 mi South 5.8 mph - N/A   Scattered Clouds
9:15 PM 77.0 °F - 73.4 °F 89% 30.02 in 10.0 mi South 6.9 mph - N/A   Mostly Cloudy
9:35 PM 77.0 °F - 73.4 °F 89% 30.02 in 10.0 mi South 3.5 mph - N/A   Clear
9:55 PM 75.2 °F - 73.4 °F 94% 30.03 in 10.0 mi South 4.6 mph - N/A   Scattered Clouds
10:15 PM 75.2 °F - 73.4 °F 94% 30.03 in 10.0 mi Calm Calm - N/A   Overcast
10:35 PM 75.2 °F - 73.4 °F 94% 30.03 in 10.0 mi SSE 4.6 mph - N/A   Scattered Clouds
10:55 PM 75.2 °F - 73.4 °F 94% 30.04 in 10.0 mi SSE 5.8 mph - N/A   Mostly Cloudy
11:15 PM 75.2 °F - 73.4 °F 94% 30.05 in 10.0 mi South 6.9 mph - N/A   Overcast
11:35 PM 75.2 °F - 73.4 °F 94% 30.05 in 10.0 mi South 5.8 mph - N/A   Overcast
11:55 PM 75.2 °F - 73.4 °F 94% 30.05 in 10.0 mi South 6.9 mph - N/A   Overcast